TimeEST,TemperatureF,Dew PointF,Humidity,Sea Level PressureIn,VisibilityMPH,Wind Direction,Wind SpeedMPH,Gust SpeedMPH,PrecipitationIn,Events,Conditions,WindDirDegrees,DateUTC
12:15 AM,35.6,35.6,100,30.16,5.0,Calm,Calm,-,N/A,,Clear,0,2012-11-21 05:15:00
12:35 AM,35.6,35.6,100,30.16,2.0,Calm,Calm,-,N/A,,Clear,0,2012-11-21 05:35:00
12:55 AM,35.6,35.6,100,30.15,2.5,Calm,Calm,-,N/A,,Clear,0,2012-11-21 05:55:00
1:15 AM,35.6,33.8,93,30.15,4.0,Calm,Calm,-,N/A,,Clear,0,2012-11-21 06:15:00
1:35 AM,35.6,33.8,93,30.16,3.0,Calm,Calm,-,N/A,,Clear,0,2012-11-21 06:35:00
1:55 AM,35.6,33.8,93,30.16,4.0,Calm,Calm,-,N/A,,Clear,0,2012-11-21 06:55:00
2:15 AM,35.6,33.8,93,30.16,4.0,Calm,Calm,-,N/A,,Clear,0,2012-11-21 07:15:00
2:35 AM,33.8,33.8,100,30.17,0.5,Calm,Calm,-,N/A,,Unknown,0,2012-11-21 07:35:00
2:55 AM,33.8,33.8,100,30.17,2.5,Calm,Calm,-,N/A,,Clear,0,2012-11-21 07:55:00
3:15 AM,33.8,30.2,87,30.17,1.2,Calm,Calm,-,N/A,,Clear,0,2012-11-21 08:15:00
3:35 AM,33.8,32.0,93,30.17,5.0,Calm,Calm,-,N/A,,Clear,0,2012-11-21 08:35:00
3:55 AM,33.8,30.2,87,30.17,4.0,Calm,Calm,-,N/A,,Clear,0,2012-11-21 08:55:00
4:15 AM,30.2,30.2,100,30.17,3.0,Calm,Calm,-,N/A,,Clear,0,2012-11-21 09:15:00
4:35 AM,32.0,30.2,93,30.17,2.5,Calm,Calm,-,N/A,,Clear,0,2012-11-21 09:35:00
4:55 AM,30.2,30.2,100,30.18,1.2,Calm,Calm,-,N/A,,Clear,0,2012-11-21 09:55:00
5:15 AM,32.0,30.2,93,30.18,1.5,Calm,Calm,-,N/A,,Clear,0,2012-11-21 10:15:00
5:35 AM,32.0,30.2,93,30.18,3.0,Calm,Calm,-,N/A,,Clear,0,2012-11-21 10:35:00
5:55 AM,30.2,30.2,100,30.19,2.5,Calm,Calm,-,N/A,,Clear,0,2012-11-21 10:55:00
6:15 AM,30.2,28.4,93,30.19,2.0,Calm,Calm,-,N/A,,Clear,0,2012-11-21 11:15:00
6:35 AM,30.2,28.4,93,30.20,2.0,Calm,Calm,-,N/A,,Clear,0,2012-11-21 11:35:00
6:55 AM,30.2,28.4,93,30.20,1.5,Calm,Calm,-,N/A,,Clear,0,2012-11-21 11:55:00
7:15 AM,32.0,30.2,93,30.20,3.0,Calm,Calm,-,N/A,,Clear,0,2012-11-21 12:15:00
7:35 AM,32.0,30.2,93,30.21,2.5,Calm,Calm,-,N/A,,Clear,0,2012-11-21 12:35:00
7:55 AM,33.8,30.2,87,30.22,2.5,Calm,Calm,-,N/A,,Clear,0,2012-11-21 12:55:00
8:15 AM,33.8,32.0,93,30.23,2.5,Calm,Calm,-,N/A,,Clear,0,2012-11-21 13:15:00
8:35 AM,37.4,35.6,93,30.23,3.0,Calm,Calm,-,N/A,,Clear,0,2012-11-21 13:35:00
8:55 AM,41.0,39.2,93,30.23,5.0,Calm,Calm,-,N/A,,Clear,0,2012-11-21 13:55:00
9:15 AM,44.6,35.6,71,30.23,10.0,NE,3.5,-,N/A,,Clear,40,2012-11-21 14:15:00
9:35 AM,46.4,35.6,66,30.24,10.0,NE,5.8,-,N/A,,Clear,40,2012-11-21 14:35:00
9:55 AM,48.2,35.6,62,30.24,10.0,NE,4.6,-,N/A,,Clear,50,2012-11-21 14:55:00
10:15 AM,48.2,33.8,58,30.24,10.0,East,3.5,-,N/A,,Clear,80,2012-11-21 15:15:00
10:35 AM,51.8,33.8,50,30.24,10.0,East,5.8,-,N/A,,Clear,80,2012-11-21 15:35:00
10:55 AM,51.8,33.8,50,30.23,10.0,NE,6.9,-,N/A,,Clear,40,2012-11-21 15:55:00
11:15 AM,51.8,32.0,47,30.22,10.0,ENE,5.8,-,N/A,,Clear,60,2012-11-21 16:15:00
11:35 AM,53.6,30.2,41,30.22,10.0,NNE,4.6,-,N/A,,Clear,30,2012-11-21 16:35:00
11:55 AM,53.6,30.2,41,30.21,10.0,East,4.6,-,N/A,,Clear,100,2012-11-21 16:55:00
12:15 PM,55.4,30.2,38,30.21,10.0,SE,3.5,-,N/A,,Clear,130,2012-11-21 17:15:00
12:35 PM,55.4,30.2,38,30.20,10.0,East,3.5,-,N/A,,Clear,80,2012-11-21 17:35:00
12:55 PM,55.4,26.6,33,30.20,10.0,East,3.5,-,N/A,,Clear,100,2012-11-21 17:55:00
1:15 PM,55.4,28.4,36,30.19,10.0,NNE,6.9,-,N/A,,Clear,30,2012-11-21 18:15:00
1:35 PM,55.4,30.2,38,30.19,10.0,ENE,3.5,-,N/A,,Clear,60,2012-11-21 18:35:00
1:55 PM,55.4,26.6,33,30.19,10.0,NE,4.6,-,N/A,,Clear,50,2012-11-21 18:55:00
2:15 PM,55.4,28.4,36,30.19,10.0,NNE,5.8,-,N/A,,Clear,30,2012-11-21 19:15:00
2:35 PM,55.4,28.4,36,30.19,10.0,Calm,Calm,-,N/A,,Clear,0,2012-11-21 19:35:00
2:55 PM,55.4,30.2,38,30.18,10.0,NNE,4.6,-,N/A,,Clear,30,2012-11-21 19:55:00
3:15 PM,55.4,30.2,38,30.19,10.0,Calm,Calm,-,N/A,,Clear,0,2012-11-21 20:15:00
3:35 PM,53.6,28.4,38,30.19,10.0,NE,4.6,-,N/A,,Clear,40,2012-11-21 20:35:00
3:55 PM,53.6,28.4,38,30.19,10.0,Calm,Calm,-,N/A,,Clear,0,2012-11-21 20:55:00
4:15 PM,51.8,28.4,41,30.20,10.0,North,3.5,-,N/A,,Clear,10,2012-11-21 21:15:00
4:35 PM,51.8,28.4,41,30.20,10.0,Calm,Calm,-,N/A,,Clear,0,2012-11-21 21:35:00
4:55 PM,48.2,28.4,46,30.21,10.0,Calm,Calm,-,N/A,,Clear,0,2012-11-21 21:55:00
5:15 PM,46.4,28.4,50,30.21,10.0,Calm,Calm,-,N/A,,Clear,0,2012-11-21 22:15:00
5:35 PM,46.4,28.4,50,30.21,10.0,Calm,Calm,-,N/A,,Clear,0,2012-11-21 22:35:00
5:55 PM,42.8,28.4,57,30.22,10.0,Calm,Calm,-,N/A,,Clear,0,2012-11-21 22:55:00
6:15 PM,42.8,26.6,53,30.23,10.0,Calm,Calm,-,N/A,,Clear,0,2012-11-21 23:15:00
6:35 PM,41.0,28.4,61,30.24,10.0,Calm,Calm,-,N/A,,Clear,0,2012-11-21 23:35:00
6:55 PM,39.2,28.4,65,30.24,10.0,Calm,Calm,-,N/A,,Clear,0,2012-11-21 23:55:00
7:15 PM,37.4,28.4,70,30.24,10.0,Calm,Calm,-,N/A,,Clear,0,2012-11-22 00:15:00
7:35 PM,37.4,28.4,70,30.25,10.0,Calm,Calm,-,N/A,,Clear,0,2012-11-22 00:35:00
7:55 PM,37.4,28.4,70,30.25,10.0,Calm,Calm,-,N/A,,Clear,0,2012-11-22 00:55:00
8:15 PM,37.4,28.4,70,30.24,10.0,Calm,Calm,-,N/A,,Clear,0,2012-11-22 01:15:00
8:35 PM,39.2,28.4,65,30.25,10.0,Calm,Calm,-,N/A,,Clear,0,2012-11-22 01:35:00
8:55 PM,35.6,28.4,75,30.25,10.0,Calm,Calm,-,N/A,,Clear,0,2012-11-22 01:55:00
9:15 PM,35.6,28.4,75,30.25,10.0,Calm,Calm,-,N/A,,Clear,0,2012-11-22 02:15:00
9:35 PM,35.6,28.4,75,30.25,10.0,Calm,Calm,-,N/A,,Clear,0,2012-11-22 02:35:00
9:55 PM,35.6,28.4,75,30.25,10.0,Calm,Calm,-,N/A,,Clear,0,2012-11-22 02:55:00
10:15 PM,35.6,26.6,70,30.24,10.0,Calm,Calm,-,N/A,,Clear,0,2012-11-22 03:15:00
10:35 PM,33.8,28.4,81,30.24,10.0,Calm,Calm,-,N/A,,Clear,0,2012-11-22 03:35:00
10:55 PM,33.8,26.6,75,30.23,10.0,Calm,Calm,-,N/A,,Clear,0,2012-11-22 03:55:00
11:15 PM,33.8,26.6,75,30.24,10.0,Calm,Calm,-,N/A,,Clear,0,2012-11-22 04:15:00
11:35 PM,32.0,28.4,87,30.25,10.0,Calm,Calm,-,N/A,,Clear,0,2012-11-22 04:35:00
11:55 PM,32.0,26.6,80,30.24,10.0,Calm,Calm,-,N/A,,Clear,0,2012-11-22 04:55:00